SCP
0 0 0 0 0 0 0 0 0 0 0 0 0 0 0 0 0 0 0 0 0 0 0 0 0 0 0 0 0 0 0 0 0 0 0 0 0 0
0 0 0 0 0 0 0 0 0 0 0 0 0 0 0 0 0 0 0 0 0 0 0 0 0 0 0 0 0 0 0 0 0 0 0 0 0 0
0 0 0 0 0 0 0 0 0 0 0 0 0 0 0 0 0 0 0 0 0 0 0 0 0 0 0 0 0 0 0 0 0 0 0 0 0 0
0 0 0 0 0 0 0 0 0 0 0 0 0 0 0 0 0 0 0 0 0 0 0 0 0 0 0 0 0 0 0 0 0 0 0 0 0 0
0 0 0 0 0 0 0 0 0 0 0 0 0 0 0 0 0 0 0 0 0 0 0 0 0 0 0 0 0 0 0 0 0 0 0 0 0 0
0 0 0 0 0 0 0 0 0 0 0 0 0 0 0 0 0 0 0 0 0 0 0 0 0 0 0 0 0 0 0 0 0 0 0 0 0 0
0 0 0 0 0 0 0 0 0 0 0 0 0 0 0 0 0 0 0 0 0 -0 0 0 0 0 0 0 0 0 0 0 0 0 0 0 0 0
0 0 0 0 0 0 0 0 0 0 0 0 0 0 0 0 0 0 0 0 0 -0 -0 0 0 0 0 0 0 0 0 0 0 0 0 0 0 0
0 0 0 0 0 0 0 0 0 0 0 0 0 0 0 0 0 0 0 0 0 0 -0 0 0 0 0 0 0 0 0 0 0 0 0 0 0 0
0 0 0 0 0 0 0 0 0 0 0 0 0 0 0 0 0 0 0 0 0 0 -0 0 0 0 0 0 0 0 0 0 0 0 0 0 0 0
0 0 0 0 0 0 0 0 0 0 0 0 0 0 0 0 0 0 0 0 0 0 -0 0 0 0 0 0 0 0 0 0 0 0 0 0 0 0
0 0 0 0 0 0 0 0 0 0 0 0 0 0 0 0 0 0 0 0 0 0 -0 0 0 0 0 0 0 0 0 0 0 0 0 0 0 0
0 0 0 0 0 0 0 0 0 0 0 0 0 0 0 0 0 0 0 0 0 0 0 0 0 0 0 0 0 0 0 0 0 0 0 0 0 0
0 0 0 0 0 0 0 0 0 0 0 0 0 0 0 0 0 0 0 0 0 0 0 0 0 0 0 0 0 0 0 0 0 0 0 0 0 0
0 0 0 0 0 0 0 0 0 0 0 0 0 0 0 0 0 0 0 0 0 0 0 0 0 0 0 0 0 0 0 0 0 0 0 0 0 0
0 0 0 0 0 0 0 0 0 0 0 0 0 0 0 0 0 0 0 0 0 0 0 0 0 0 0 0 0 0 0 0 0 0 0 0 0 0
0 0 0 0 0 0 0 0 0 0 0 0 0 0 0 0 0 0 0 0 0 0 0 0 0 0 0 0 0 0 0 0 0 0 0 0 0 0
0 0 0 0 0 0 0 0 0 0 0 0 0 0 0 0 0 0 0 0 0 0 0 0 0 0 0 0 0 0 0 0 0 0 0 0 0 0
0 0 0 0 0 0 0 0 0 0 0 0 0 0 0 0 0 0 0 0 0 0 0 0 0 0 0 0 0 0 0 0 0 0 0 0 0 0
0 0 0 0 0 0 0 0 0 0 0 0 0 0 0 0 0 0 0 0 0 0 0 0 0 0 0 0 0 0 0 0 0 0 0 0 0 0
0 0 0 0 0 0 0 0 0 0 0 0 0 0 0 0 0 0 0 0 0 0 0 0 0 0 0 0 0 0 0 0 0 0 0 0 0 0
0 0 0 0 0 0 0 0 0 0 0 0 0 0 0 0 0 0 0 0 0 0 0 0 0 0 0 0 0 0 0 0 0 0 0 0 0 0
0 0 0 0 0 0 0 0 0 0 0 0 0 0 0 0 0 0 0 0 0 0 0 0 0 0 0 0 0 0 0 0 0 0 0 0 0 0
Wind_Speed
3 3 2 2 2 2 2 2 3 4 5 3 2 2 2 2 4 3 3 8 9 9 9 9 9 10 11 12 11 12 12 13 13 13 12 13 13 13
2 3 3 2 2 2 3 3 3 4 5 3 2 3 3 4 5 3 4 8 9 9 9 9 9 10 11 11 11 12 12 13 13 12 12 13 13 12
3 3 3 3 3 2 2 2 3 3 5 5 2 3 4 4 4 3 3 4 4 9 10 9 9 10 11 11 11 12 12 13 12 12 12 13 13 13
4 3 4 3 3 3 2 3 3 3 4 6 4 3 4 4 4 4 4 4 4 8 10 10 10 10 11 11 11 11 11 12 11 12 11 12 13 13
3 4 3 3 3 3 3 3 3 3 3 4 5 3 3 3 3 4 5 4 5 6 8 9 10 10 10 11 11 10 10 10 10 10 10 11 12 13
3 3 4 4 4 3 4 4 3 3 3 3 4 3 3 3 2 3 4 3 4 4 5 7 9 10 10 10 10 9 9 9 9 10 10 10 11 12
2 2 3 4 5 4 4 3 3 3 3 3 4 4 3 3 3 3 4 4 4 3 3 4 4 4 5 7 8 8 8 8 9 9 10 10 10 11
2 2 2 3 3 5 6 5 5 4 4 4 4 4 5 4 3 3 3 4 4 2 2 4 3 4 4 3 6 7 8 8 8 8 9 9 9 9
1 2 2 2 3 2 3 4 4 5 6 5 5 5 5 4 4 5 4 4 5 3 2 4 3 4 4 5 7 7 7 8 8 8 8 9 9 9
1 2 2 2 3 3 2 3 3 3 4 3 4 4 4 4 4 4 4 4 4 2 2 3 3 3 4 4 6 7 7 7 7 7 7 8 8 9
2 2 2 2 4 4 3 2 3 3 3 5 5 5 6 6 4 2 2 3 3 2 1 2 3 3 3 3 4 6 7 8 8 7 8 8 9 9
2 2 3 3 5 5 3 2 3 3 3 4 4 4 4 4 5 3 2 3 3 3 1 1 2 2 3 3 2 3 4 6 8 8 8 8 8 5
2 2 2 4 5 5 4 2 4 4 3 3 2 2 2 2 2 2 2 2 3 3 1 1 2 1 2 4 3 2 2 3 3 4 6 8 8 6
2 2 2 5 6 6 4 4 5 5 2 2 2 2 2 2 2 2 2 2 3 3 3 2 2 2 2 4 4 3 3 2 2 3 3 6 6 7
2 3 4 5 6 4 5 5 5 2 2 2 2 2 2 2 2 1 2 2 2 2 2 2 2 2 2 3 4 3 4 3 2 2 3 3 3 3
3 3 5 5 4 4 4 4 2 2 2 2 2 2 2 2 1 1 2 2 2 2 2 2 2 3 3 4 4 4 3 3 3 3 3 3 3 2
3 2 2 2 2 2 2 3 2 2 2 2 2 2 2 2 2 1 1 1 2 3 3 2 2 2 3 3 3 3 3 3 3 3 3 4 3 3
4 2 2 2 2 2 2 2 2 2 2 2 2 2 2 2 2 2 1 1 2 2 3 3 3 2 2 2 2 3 2 3 3 3 3 3 4 3
3 2 2 2 2 2 2 2 2 3 2 2 2 2 2 2 2 2 2 2 2 2 2 2 2 2 2 3 3 2 2 3 3 3 3 3 4 4
3 3 3 2 2 2 2 2 2 2 2 2 2 2 2 2 2 2 2 2 2 2 3 2 2 2 2 3 3 3 3 3 3 3 3 3 4 5
3 3 3 3 2 2 2 2 2 2 3 2 2 2 2 2 2 2 2 3 3 2 3 3 3 4 2 2 2 3 3 4 4 3 3 3 3 3
3 3 3 3 3 2 2 2 2 2 2 2 2 2 2 2 2 2 2 2 2 2 3 3 3 2 1 1 3 4 4 4 4 5 4 3 2 2
3 3 3 3 3 2 2 2 2 2 2 2 2 2 2 2 2 2 2 2 2 3 3 3 3 2 2 2 2 3 4 4 3 3 3 5 6 7
Wind_Direction
216 219 231 241 237 244 241 229 235 268 272 257 260 269 274 264 269 261 260 278 287 291 295 298 302 304 304 302 304 306 307 308 307 304 300 298 299 302
219 216 230 238 235 234 234 240 238 245 267 265 267 287 290 284 283 276 269 286 284 288 291 293 295 299 303 303 302 303 304 305 304 303 303 301 301 302
233 231 237 235 235 237 237 241 248 243 262 278 278 292 293 289 290 280 278 273 275 283 285 288 292 296 300 303 302 301 303 302 300 300 299 301 303 304
228 232 241 247 246 247 245 247 252 249 253 273 284 281 279 278 277 280 284 281 272 282 285 286 290 295 298 301 301 301 302 301 302 304 301 302 304 305
227 232 238 240 248 250 254 252 254 261 259 264 276 279 279 281 287 287 280 276 281 285 285 284 288 293 295 297 299 299 300 300 303 309 308 304 303 304
232 237 239 235 241 243 253 251 255 265 266 265 274 282 285 285 290 291 295 290 289 292 296 295 291 293 296 298 297 295 298 301 304 309 312 310 308 306
246 248 253 255 261 261 262 250 243 249 255 260 267 277 282 291 285 284 288 294 287 280 293 297 296 292 293 296 297 299 302 302 304 309 312 312 313 311
245 259 265 261 269 276 281 281 266 253 250 250 257 264 274 278 281 283 289 296 291 294 303 294 293 289 289 282 295 300 302 304 307 313 318 320 320 320
261 273 282 278 284 271 283 291 292 286 265 249 249 260 267 271 274 277 279 282 280 286 301 287 287 286 294 294 299 300 298 300 305 312 319 322 326 328
296 283 282 289 285 284 282 284 284 288 283 274 253 261 268 268 260 262 268 280 277 279 272 280 290 285 298 295 297 305 310 312 315 319 325 327 326 325
313 307 296 297 300 299 286 282 293 301 301 282 272 275 285 291 290 288 288 285 283 282 280 278 295 301 296 296 311 325 327 323 322 325 327 327 326 322
334 333 321 323 322 317 309 299 298 300 306 308 302 294 293 297 302 285 273 274 280 287 303 305 297 321 313 297 309 326 328 329 332 330 329 328 328 322
327 336 335 333 327 325 322 313 308 311 308 305 306 307 306 300 291 276 259 253 263 271 302 322 295 305 288 299 306 310 320 322 325 324 325 329 331 332
322 323 326 332 330 327 324 327 325 322 317 313 315 312 309 299 294 284 266 252 250 258 267 258 262 273 286 294 296 307 306 306 316 320 321 326 325 325
323 327 333 334 333 333 338 334 330 330 333 329 317 307 305 300 302 304 303 281 275 271 270 255 247 259 258 268 282 296 309 309 311 318 321 319 314 317
343 349 349 347 345 346 345 339 339 342 337 313 304 302 312 320 322 318 313 321 313 315 309 284 263 256 265 272 272 285 297 298 312 313 311 308 310 305
347 356 1 357 4 1 354 346 347 346 341 332 324 324 327 325 321 325 323 330 316 313 326 323 283 257 251 256 271 279 289 294 298 309 315 315 312 305
10 6 5 6 356 345 341 341 346 345 339 333 329 321 319 323 328 337 332 320 314 314 317 320 325 327 319 301 246 269 287 289 301 311 307 304 305 303
19 2 355 349 343 339 337 338 338 336 334 334 328 323 322 325 324 324 325 320 314 314 316 318 324 330 329 319 312 277 277 299 305 302 295 287 288 296
7 356 348 343 340 338 341 339 337 340 339 335 333 331 327 321 319 322 322 324 322 323 323 324 320 311 286 286 295 303 300 286 289 291 291 290 286 291
356 348 343 337 334 337 340 338 333 332 332 329 330 330 328 328 331 329 330 335 332 328 328 324 310 312 288 286 298 307 313 309 300 283 285 298 306 315
346 340 336 332 331 335 335 333 329 330 328 321 321 324 327 331 327 330 337 336 333 325 315 311 315 324 330 316 302 306 317 326 324 315 292 265 270 284
338 335 333 331 331 331 329 325 321 318 318 318 320 321 324 325 323 326 331 331 328 329 328 328 336 335 315 294 299 311 325 327 324 329 325 324 311 294